{"data":{"norad_id":62870,"epoch":"2026-05-25T03:41:56.387904Z","epoch_age_seconds":58152,"freshness":"FRESH","line1":"1 62870U 25022S   26145.15412486  .00019481  00000+0  58596-3 0  9991","line2":"2 62870  53.1590 133.2802 0001301  99.0950 261.0200 15.34412997 73628","mean_motion":15.34412997,"eccentricity":0.0001301,"inclination_deg":53.159,"raan_deg":133.2802,"arg_perigee_deg":99.095,"mean_anomaly_deg":261.02,"bstar":0.00058596,"rev_number":7362,"period_min":93.846963158902,"perigee_km":461.77462236724,"apogee_km":463.55459894633,"semimajor_km":6840.8016106568,"source":"CELESTRAK","updated_at":"2026-05-25T13:38:19.786760Z"}}